User: anonymous   Login
Location: Newark
(6.1731°S, 35.7419°E)
Time: 09:45:06
(UTC+00:00)
Language:

Explorer 7 - Orbit

View from above orbital plane
View from above orbital plane
View from above satellite
View from above satellite

Ground track
Ground track

The orbit data is extracted from the following two-line orbital elements,

1    22U 59009A   20049.92869395 +.00000013 +00000-0 +24265-4 0  9990
2    22 050.2842 302.8424 0139696 162.0817 198.5126 14.95040152452496
Epoch (UTC): 18 February 2020 22:17:19
Eccentricity: 0.0139696
inclination: 50.2842°
perigee height: 485 km
apogee height: 679 km
right ascension of ascending node: 302.8424°
argument of perigee: 162.0817°
revolutions per day: 14.95040152
mean anomaly at epoch: 198.5126°
orbit number at epoch: 45249

The dashed part of the orbit path shows where the satellite is in the earth's shadow,  

DLR